Location: Val-d'Or
(48.1170°N, 77.7670°W)
Time: 01:02:28
(UTC-04:00)

ISS - Pass Details

Date: 20 May 2018
Orbit: 402 x 407 km, 51.6° (Epoch: 21 May)

Event Time Altitude Azimuth Distance (km) Brightness Sun altitude
Rises 03:23:38 0° 291° (WNW) 2,320 -0.1 -15.4°
Reaches altitude 10° 03:25:43 10° 294° (WNW) 1,458 -1.1 -15.2°
Maximum altitude 03:28:59 75° 19° (NNE) 421 -3.7 -14.9°
Drops below altitude 10° 03:32:15 10° 106° (ESE) 1,454 -0.8 -14.6°
Sets 03:34:19 0° 108° (ESE) 2,311 0.2 -14.4°
